Location: Newark
(44.1667°N, 8.2500°E)
Time: 15:36:51
(UTC+00:00)

Transit 2A - All Passes

Search period start: 14 December 2019 00:00
Search period end: 24 December 2019 00:00
Orbit: 602 x 957 km, 66.7° (Epoch: 14 December)

Date Brightness Start Highest point End Pass type
(mag) Time Alt. Az. Time Alt. Az. Time Alt. Az.
14 Dec - 04:34:32 10° SSE 04:38:22 24° ESE 04:42:01 10° ENE visible
14 Dec - 06:16:51 10° WSW 06:21:19 41° NW 06:25:32 10° NNE visible
14 Dec - 13:18:15 10° NNW 13:22:10 30° NE 13:26:15 10° ESE daylight
14 Dec - 15:01:15 10° NW 15:05:17 34° WSW 15:09:36 10° S daylight
15 Dec - 04:01:31 10° SE 04:04:24 16° ESE 04:07:12 10° ENE visible
15 Dec - 05:42:26 10° SW 05:47:08 60° NW 05:51:32 10° NNE visible
15 Dec - 07:30:01 10° NW 07:31:09 11° NW 07:32:17 10° NNW daylight
15 Dec - 12:44:26 10° N 12:47:53 22° NE 12:51:27 10° E daylight
15 Dec - 14:26:55 10° NW 14:31:15 52° WSW 14:35:54 10° SSE daylight
16 Dec - 03:30:01 10° ESE 03:30:29 10° ESE 03:30:58 10° E visible
16 Dec - 05:08:13 10° SSW 05:12:59 90° W 05:17:28 10° NNE visible
16 Dec - 06:54:12 10° WNW 06:56:44 15° NW 06:59:12 10° N daylight
16 Dec - 12:10:46 10° N 12:13:32 16° NE 12:16:23 10° E daylight
16 Dec - 13:52:42 10° NW 13:57:10 80° WSW 14:01:57 10° SSE daylight
17 Dec - 04:34:13 10° SSW 04:38:54 60° ESE 04:43:17 10° NE visible
17 Dec - 06:19:01 10° W 06:22:21 20° NW 06:25:36 10° N visible
17 Dec - 11:37:24 10° NNE 11:39:07 12° NE 11:40:52 10° ENE daylight
17 Dec - 13:18:36 10° NNW 13:23:03 69° ENE 13:27:47 10° SE daylight
17 Dec - 15:03:20 10° WNW 15:05:42 14° WSW 15:08:08 10° SW daylight
18 Dec - 04:00:25 10° S 04:04:51 39° ESE 04:09:00 10° NE visible
18 Dec - 05:44:07 10° WSW 05:48:03 27° NW 05:51:49 10° N visible
18 Dec - 12:44:35 10° NNW 12:48:53 46° NE 12:53:27 10° SE daylight
18 Dec - 14:28:19 10° WNW 14:31:45 21° WSW 14:35:21 10° SSW daylight
19 Dec - 03:26:55 10° SSE 03:30:50 26° ESE 03:34:33 10° NE visible
19 Dec - 05:09:28 10° WSW 05:13:48 37° NW 05:17:56 10° NNE visible
19 Dec - 12:10:39 10° NNW 12:14:40 32° NE 12:18:54 10° ESE daylight
19 Dec - 13:53:45 10° NW 13:57:45 32° WSW 14:02:01 10° S daylight
20 Dec - 02:53:47 10° SSE 02:56:52 17° ESE 02:59:49 10° ENE visible
20 Dec - 04:35:01 10° SW 04:39:37 55° NW 04:43:58 10° NNE visible
20 Dec - 06:23:32 10° NW 06:23:42 10° NW 06:23:53 10° NNW visible
20 Dec - 11:36:48 10° N 11:40:24 23° NE 11:44:09 10° E daylight
20 Dec - 13:19:23 10° NW 13:23:43 48° WSW 13:28:21 10° S daylight
21 Dec - 02:21:37 10° ESE 02:22:56 11° ESE 02:24:13 10° E night (unlit)
21 Dec - 04:00:45 10° SSW 04:05:28 83° NW 04:09:55 10° NNE visible
21 Dec - 05:47:00 10° WNW 05:49:15 13° NW 05:51:29 10° N visible
21 Dec - 11:03:05 10° N 11:06:04 17° NE 11:09:08 10° E daylight
21 Dec - 12:45:09 10° NW 12:49:38 73° WSW 12:54:28 10° SSE daylight
22 Dec - 03:26:41 10° SSW 03:31:22 66° ESE 03:35:45 10° NE visible
22 Dec - 05:11:43 10° W 05:14:53 18° NW 05:17:57 10° N visible
22 Dec - 10:29:36 10° N 10:31:40 13° NE 10:33:46 10° ENE daylight
22 Dec - 12:11:02 10° NNW 12:15:31 75° ENE 12:20:21 10° SE daylight
22 Dec - 13:56:03 10° W 13:58:08 13° WSW 14:00:18 10° SW daylight
23 Dec - 02:52:51 10° S 02:57:18 42° ESE 03:01:30 10° NE visible
23 Dec - 04:36:47 10° WSW 04:40:33 25° NW 04:44:12 10° N visible
23 Dec - 11:36:59 10° NNW 11:41:22 50° NE 11:46:02 10° SE daylight
23 Dec - 13:20:53 10° WNW 13:24:11 20° WSW 13:27:40 10° SSW daylight
